Time,TemperatureF,DewpointF,PressureIn,WindDirection,WindDirectionDegrees,WindSpeedMPH,WindSpeedGustMPH,Humidity,HourlyPrecipIn,Conditions,Clouds,dailyrainin,SoftwareType,DateUTC
2013-07-29 00:01:00,62.6,53.4,-100.00,NW,322,0.0,0.0,72,0.00,,,0.00,meteohub,2013-07-29 05:01:00,
2013-07-29 00:06:00,62.6,53.4,-100.00,NW,322,0.0,0.0,72,0.00,,,0.00,meteohub,2013-07-29 05:06:00,
2013-07-29 00:11:00,62.8,53.6,-100.00,NW,322,0.0,0.0,72,0.00,,,0.00,meteohub,2013-07-29 05:11:00,
2013-07-29 00:16:00,62.4,53.2,-100.00,NW,322,0.0,0.0,72,0.00,,,0.00,meteohub,2013-07-29 05:16:00,
2013-07-29 00:21:00,62.2,53.1,-100.00,NW,322,0.0,0.0,72,0.00,,,0.00,meteohub,2013-07-29 05:21:00,
2013-07-29 00:27:00,62.1,52.9,-100.00,NW,322,0.0,0.0,72,0.00,,,0.00,meteohub,2013-07-29 05:27:00,
2013-07-29 00:32:00,61.9,53.1,-100.00,NW,322,0.0,0.0,73,0.00,,,0.00,meteohub,2013-07-29 05:32:00,
2013-07-29 00:37:00,61.9,53.1,-100.00,NW,322,0.0,0.0,73,0.00,,,0.00,meteohub,2013-07-29 05:37:00,
2013-07-29 00:42:00,61.9,53.1,-100.00,NW,322,0.0,0.0,73,0.00,,,0.00,meteohub,2013-07-29 05:42:00,
2013-07-29 00:47:00,62.1,52.9,-100.00,NW,322,0.0,0.0,72,0.00,,,0.00,meteohub,2013-07-29 05:47:00,
2013-07-29 00:52:00,62.2,53.1,-100.00,NW,322,0.0,0.0,72,0.00,,,0.00,meteohub,2013-07-29 05:52:00,
2013-07-29 00:57:00,62.1,52.9,-100.00,NW,322,0.0,0.0,72,0.00,,,0.00,meteohub,2013-07-29 05:57:00,
2013-07-29 01:02:00,61.7,52.5,-100.00,NW,322,0.0,0.0,72,0.00,,,0.00,meteohub,2013-07-29 06:02:00,
2013-07-29 01:07:00,61.3,52.7,-100.00,NW,322,0.0,0.0,73,0.00,,,0.00,meteohub,2013-07-29 06:07:00,
2013-07-29 01:12:00,61.0,52.7,-100.00,NW,322,0.0,0.0,74,0.00,,,0.00,meteohub,2013-07-29 06:12:00,
2013-07-29 01:17:00,60.8,52.9,-100.00,NW,322,0.0,0.0,75,0.00,,,0.00,meteohub,2013-07-29 06:17:00,
2013-07-29 01:22:00,61.0,53.1,-100.00,NW,322,0.0,0.0,75,0.00,,,0.00,meteohub,2013-07-29 06:22:00,
2013-07-29 01:27:00,61.0,52.7,-100.00,NW,322,0.0,0.0,74,0.00,,,0.00,meteohub,2013-07-29 06:27:00,
2013-07-29 01:32:00,60.8,52.9,-100.00,NW,322,0.0,0.0,75,0.00,,,0.00,meteohub,2013-07-29 06:32:00,
2013-07-29 01:37:00,60.6,52.7,-100.00,NW,322,0.0,0.0,75,0.00,,,0.00,meteohub,2013-07-29 06:37:00,
2013-07-29 01:42:00,60.6,52.7,-100.00,NW,322,0.0,0.0,75,0.00,,,0.00,meteohub,2013-07-29 06:42:00,
2013-07-29 01:47:00,60.4,52.5,-100.00,NW,322,0.0,0.0,75,0.00,,,0.00,meteohub,2013-07-29 06:47:00,
2013-07-29 01:52:00,60.3,52.7,-100.00,NW,322,0.0,0.0,76,0.00,,,0.00,meteohub,2013-07-29 06:52:00,
2013-07-29 01:57:00,59.9,52.7,-100.00,NW,322,0.0,0.0,77,0.00,,,0.00,meteohub,2013-07-29 06:57:00,
2013-07-29 02:02:00,59.9,52.7,-100.00,NW,322,0.0,0.0,77,0.00,,,0.00,meteohub,2013-07-29 07:02:00,
2013-07-29 02:07:00,59.7,52.5,-100.00,NW,322,0.0,0.0,77,0.00,,,0.00,meteohub,2013-07-29 07:07:00,
2013-07-29 02:12:00,59.5,52.7,-100.00,NW,322,0.0,0.0,78,0.00,,,0.00,meteohub,2013-07-29 07:12:00,
2013-07-29 02:17:00,59.4,52.5,-100.00,NW,322,0.0,0.0,78,0.00,,,0.00,meteohub,2013-07-29 07:17:00,
2013-07-29 02:22:00,59.7,52.9,-100.00,NW,322,0.0,0.0,78,0.00,,,0.00,meteohub,2013-07-29 07:22:00,
2013-07-29 02:27:00,60.1,52.9,-100.00,NW,322,0.0,0.0,77,0.00,,,0.00,meteohub,2013-07-29 07:27:00,
2013-07-29 02:32:00,60.1,52.5,-100.00,NW,322,0.0,0.0,76,0.00,,,0.00,meteohub,2013-07-29 07:32:00,
2013-07-29 02:37:00,59.9,52.7,-100.00,NW,322,0.0,0.0,77,0.00,,,0.00,meteohub,2013-07-29 07:37:00,
2013-07-29 02:42:00,59.9,52.7,-100.00,NW,322,0.0,0.0,77,0.00,,,0.00,meteohub,2013-07-29 07:42:00,
2013-07-29 02:45:00,59.9,52.7,-100.00,NW,322,0.0,0.0,77,0.00,,,0.00,meteohub,2013-07-29 07:45:00,
2013-07-29 02:50:00,60.3,53.1,-100.00,NW,322,0.0,0.0,77,0.00,,,0.00,meteohub,2013-07-29 07:50:00,
2013-07-29 02:55:00,60.4,52.9,-100.00,NW,322,0.0,0.0,76,0.00,,,0.00,meteohub,2013-07-29 07:55:00,
2013-07-29 03:00:00,60.4,52.9,-100.00,NNW,345,0.0,0.0,76,0.00,,,0.00,meteohub,2013-07-29 08:00:00,
2013-07-29 03:05:00,60.3,52.7,-100.00,NNW,345,0.0,2.0,76,0.00,,,0.00,meteohub,2013-07-29 08:05:00,
2013-07-29 03:10:00,60.3,53.1,-100.00,NNW,345,0.0,2.0,77,0.00,,,0.00,meteohub,2013-07-29 08:10:00,
2013-07-29 03:15:00,60.4,53.2,-100.00,NNW,345,0.0,2.0,77,0.00,,,0.00,meteohub,2013-07-29 08:15:00,
2013-07-29 03:20:00,60.4,53.2,-100.00,North,355,0.0,0.0,77,0.00,,,0.00,meteohub,2013-07-29 08:20:00,
2013-07-29 03:25:00,60.3,53.1,-100.00,North,355,0.0,1.0,77,0.00,,,0.00,meteohub,2013-07-29 08:25:00,
2013-07-29 03:30:00,59.9,53.1,-100.00,North,355,0.0,1.0,78,0.00,,,0.00,meteohub,2013-07-29 08:30:00,
2013-07-29 03:35:00,59.7,52.9,-100.00,North,355,0.0,0.0,78,0.00,,,0.00,meteohub,2013-07-29 08:35:00,
2013-07-29 03:40:00,59.4,52.5,-100.00,North,355,0.0,0.0,78,0.00,,,0.00,meteohub,2013-07-29 08:40:00,
2013-07-29 03:45:00,59.0,52.5,-100.00,North,355,0.0,0.0,79,0.00,,,0.00,meteohub,2013-07-29 08:45:00,
2013-07-29 03:50:00,59.0,52.5,-100.00,North,355,0.0,0.0,79,0.00,,,0.00,meteohub,2013-07-29 08:50:00,
2013-07-29 03:55:00,58.8,52.7,-100.00,North,355,0.0,0.0,80,0.00,,,0.00,meteohub,2013-07-29 08:55:00,
2013-07-29 04:00:00,58.6,52.5,-100.00,North,355,0.0,0.0,80,0.00,,,0.00,meteohub,2013-07-29 09:00:00,
2013-07-29 04:05:00,58.6,52.5,-100.00,North,355,0.0,0.0,80,0.00,,,0.00,meteohub,2013-07-29 09:05:00,
2013-07-29 04:10:00,58.5,52.7,-100.00,North,355,0.0,0.0,81,0.00,,,0.00,meteohub,2013-07-29 09:10:00,
2013-07-29 04:15:00,58.5,52.7,-100.00,North,355,0.0,0.0,81,0.00,,,0.00,meteohub,2013-07-29 09:15:00,
2013-07-29 04:20:00,58.3,52.5,-100.00,North,355,0.0,0.0,81,0.00,,,0.00,meteohub,2013-07-29 09:20:00,
2013-07-29 04:25:00,58.1,52.3,-100.00,North,355,0.0,0.0,81,0.00,,,0.00,meteohub,2013-07-29 09:25:00,
2013-07-29 04:30:00,57.9,52.5,-100.00,North,355,0.0,0.0,82,0.00,,,0.00,meteohub,2013-07-29 09:30:00,
2013-07-29 04:32:00,57.9,52.5,-100.00,North,355,0.0,0.0,82,0.00,,,0.00,meteohub,2013-07-29 09:32:00,
2013-07-29 04:37:00,57.7,52.3,-100.00,North,355,0.0,0.0,82,0.00,,,0.00,meteohub,2013-07-29 09:37:00,
2013-07-29 04:42:00,57.6,52.2,-100.00,North,355,0.0,0.0,82,0.00,,,0.00,meteohub,2013-07-29 09:42:00,
2013-07-29 04:47:00,57.4,52.3,-100.00,North,355,0.0,0.0,83,0.00,,,0.00,meteohub,2013-07-29 09:47:00,
2013-07-29 04:52:00,57.0,52.0,-100.00,North,355,0.0,0.0,83,0.00,,,0.00,meteohub,2013-07-29 09:52:00,
2013-07-29 04:57:00,56.8,51.8,-100.00,North,355,0.0,0.0,83,0.00,,,0.00,meteohub,2013-07-29 09:57:00,
2013-07-29 05:02:00,56.8,52.0,-100.00,North,355,0.0,0.0,84,0.00,,,0.00,meteohub,2013-07-29 10:02:00,
2013-07-29 05:07:00,56.8,52.0,-100.00,North,355,0.0,0.0,84,0.00,,,0.00,meteohub,2013-07-29 10:07:00,
2013-07-29 05:12:00,57.0,52.2,-100.00,North,355,0.0,0.0,84,0.00,,,0.00,meteohub,2013-07-29 10:12:00,
2013-07-29 05:17:00,57.0,52.2,-100.00,North,355,0.0,0.0,84,0.00,,,0.00,meteohub,2013-07-29 10:17:00,
2013-07-29 05:22:00,57.0,52.2,-100.00,North,355,0.0,0.0,84,0.00,,,0.00,meteohub,2013-07-29 10:22:00,
2013-07-29 05:27:00,57.0,52.2,-100.00,North,355,0.0,0.0,84,0.00,,,0.00,meteohub,2013-07-29 10:27:00,
2013-07-29 05:32:00,57.0,52.2,-100.00,North,355,0.0,0.0,84,0.00,,,0.00,meteohub,2013-07-29 10:32:00,
2013-07-29 05:37:00,56.8,52.0,-100.00,North,355,0.0,0.0,84,0.00,,,0.00,meteohub,2013-07-29 10:37:00,
2013-07-29 05:42:00,56.7,51.8,-100.00,North,355,0.0,0.0,84,0.00,,,0.00,meteohub,2013-07-29 10:42:00,
2013-07-29 05:47:00,56.5,51.6,-100.00,North,355,0.0,0.0,84,0.00,,,0.00,meteohub,2013-07-29 10:47:00,
2013-07-29 05:52:00,56.5,51.6,-100.00,North,355,0.0,0.0,84,0.00,,,0.00,meteohub,2013-07-29 10:52:00,
2013-07-29 05:57:00,56.3,51.4,-100.00,North,355,0.0,0.0,84,0.00,,,0.00,meteohub,2013-07-29 10:57:00,
2013-07-29 06:02:00,56.3,51.8,-100.00,North,355,0.0,0.0,85,0.00,,,0.00,meteohub,2013-07-29 11:02:00,
2013-07-29 06:07:00,56.3,51.8,-100.00,North,355,0.0,0.0,85,0.00,,,0.00,meteohub,2013-07-29 11:07:00,
2013-07-29 06:12:00,56.1,51.6,-100.00,North,355,0.0,0.0,85,0.00,,,0.00,meteohub,2013-07-29 11:12:00,
2013-07-29 06:17:00,55.9,51.8,-100.00,North,355,0.0,0.0,86,0.00,,,0.00,meteohub,2013-07-29 11:17:00,
2013-07-29 06:22:00,55.8,51.6,-100.00,North,355,0.0,0.0,86,0.00,,,0.00,meteohub,2013-07-29 11:22:00,
2013-07-29 06:27:00,55.8,51.6,-100.00,North,355,0.0,0.0,86,0.00,,,0.00,meteohub,2013-07-29 11:27:00,
2013-07-29 06:32:00,55.9,52.2,-100.00,North,355,0.0,0.0,87,0.00,,,0.00,meteohub,2013-07-29 11:32:00,
2013-07-29 06:37:00,56.1,52.3,-100.00,North,355,0.0,0.0,87,0.00,,,0.00,meteohub,2013-07-29 11:37:00,
2013-07-29 06:42:00,56.1,52.3,-100.00,North,355,0.0,0.0,87,0.00,,,0.00,meteohub,2013-07-29 11:42:00,
2013-07-29 06:47:00,56.3,52.5,-100.00,North,355,0.0,0.0,87,0.00,,,0.00,meteohub,2013-07-29 11:47:00,
2013-07-29 06:52:00,56.7,52.9,-100.00,North,355,0.0,1.0,87,0.00,,,0.00,meteohub,2013-07-29 11:52:00,
2013-07-29 06:57:00,57.4,53.2,-100.00,North,355,0.0,1.0,86,0.00,,,0.00,meteohub,2013-07-29 11:57:00,
2013-07-29 07:02:00,57.9,53.8,-100.00,North,355,0.0,1.0,86,0.00,,,0.00,meteohub,2013-07-29 12:02:00,
2013-07-29 07:07:00,58.8,54.3,-100.00,North,355,0.0,1.0,85,0.00,,,0.00,meteohub,2013-07-29 12:07:00,
2013-07-29 07:12:00,59.4,54.5,-100.00,North,355,0.0,1.0,84,0.00,,,0.00,meteohub,2013-07-29 12:12:00,
2013-07-29 07:17:00,60.1,54.9,-100.00,North,355,0.0,1.0,83,0.00,,,0.00,meteohub,2013-07-29 12:17:00,
2013-07-29 07:22:00,61.0,55.4,-100.00,North,355,0.0,1.0,82,0.00,,,0.00,meteohub,2013-07-29 12:22:00,
2013-07-29 07:27:00,61.7,55.4,-100.00,North,355,0.0,1.0,80,0.00,,,0.00,meteohub,2013-07-29 12:27:00,
2013-07-29 07:32:00,62.2,55.6,-100.00,North,355,0.0,1.0,79,0.00,,,0.00,meteohub,2013-07-29 12:32:00,
2013-07-29 07:37:00,63.0,55.9,-100.00,North,0,0.0,0.0,78,0.00,,,0.00,meteohub,2013-07-29 12:37:00,
2013-07-29 07:42:00,63.3,55.9,-100.00,North,0,0.0,1.0,77,0.00,,,0.00,meteohub,2013-07-29 12:42:00,
2013-07-29 07:47:00,63.5,55.8,-100.00,NE,38,0.0,2.0,76,0.00,,,0.00,meteohub,2013-07-29 12:47:00,
2013-07-29 07:52:00,63.9,56.1,-100.00,NE,42,0.0,2.0,76,0.00,,,0.00,meteohub,2013-07-29 12:52:00,
2013-07-29 07:57:00,64.2,56.1,-100.00,NE,46,0.0,2.0,75,0.00,,,0.00,meteohub,2013-07-29 12:57:00,
2013-07-29 08:02:00,64.6,56.5,-100.00,NE,46,0.0,1.0,75,0.00,,,0.00,meteohub,2013-07-29 13:02:00,
2013-07-29 08:07:00,64.8,57.0,-100.00,NE,46,0.0,1.0,76,0.00,,,0.00,meteohub,2013-07-29 13:07:00,
2013-07-29 08:12:00,64.9,56.5,-100.00,NE,53,0.0,1.0,74,0.00,,,0.00,meteohub,2013-07-29 13:12:00,
2013-07-29 08:17:00,65.1,56.7,-100.00,NE,52,0.0,1.0,74,0.00,,,0.00,meteohub,2013-07-29 13:17:00,
2013-07-29 08:22:00,65.7,56.8,-100.00,East,101,0.0,1.0,73,0.00,,,0.00,meteohub,2013-07-29 13:22:00,
2013-07-29 08:27:00,65.8,57.0,-100.00,East,95,0.0,1.0,73,0.00,,,0.00,meteohub,2013-07-29 13:27:00,
2013-07-29 08:32:00,66.4,57.4,-100.00,East,84,0.0,1.0,73,0.00,,,0.00,meteohub,2013-07-29 13:32:00,
2013-07-29 08:37:00,66.9,57.2,-100.00,East,87,0.0,1.0,71,0.00,,,0.00,meteohub,2013-07-29 13:37:00,
2013-07-29 08:42:00,67.6,57.9,-100.00,East,88,0.0,1.0,71,0.00,,,0.00,meteohub,2013-07-29 13:42:00,
2013-07-29 08:47:00,68.5,58.3,-100.00,East,87,0.0,1.0,70,0.00,,,0.00,meteohub,2013-07-29 13:47:00,
2013-07-29 08:52:00,69.3,57.9,-100.00,East,88,0.0,1.0,67,0.00,,,0.00,meteohub,2013-07-29 13:52:00,
2013-07-29 08:57:00,69.3,58.3,-100.00,East,88,0.0,1.0,68,0.00,,,0.00,meteohub,2013-07-29 13:57:00,
2013-07-29 09:02:00,70.0,58.1,-100.00,East,88,0.0,1.0,66,0.00,,,0.00,meteohub,2013-07-29 14:02:00,
2013-07-29 09:07:00,70.5,59.0,-100.00,East,90,0.0,1.0,67,0.00,,,0.00,meteohub,2013-07-29 14:07:00,
2013-07-29 09:12:00,70.9,58.5,-100.00,East,91,0.0,1.0,65,0.00,,,0.00,meteohub,2013-07-29 14:12:00,
2013-07-29 09:17:00,71.4,58.6,-100.00,East,91,0.0,3.0,64,0.00,,,0.00,meteohub,2013-07-29 14:17:00,
2013-07-29 09:22:00,71.8,58.5,-100.00,East,91,0.0,3.0,63,0.00,,,0.00,meteohub,2013-07-29 14:22:00,
2013-07-29 09:27:00,72.1,58.8,-100.00,East,91,0.0,3.0,63,0.00,,,0.00,meteohub,2013-07-29 14:27:00,
2013-07-29 09:32:00,72.7,58.8,-100.00,East,92,0.0,1.0,62,0.00,,,0.00,meteohub,2013-07-29 14:32:00,
2013-07-29 09:37:00,72.9,59.5,-100.00,East,92,0.0,1.0,63,0.00,,,0.00,meteohub,2013-07-29 14:37:00,
2013-07-29 09:42:00,73.8,59.9,-100.00,East,91,0.0,1.0,62,0.00,,,0.00,meteohub,2013-07-29 14:42:00,
2013-07-29 09:47:00,73.4,59.2,-100.00,East,91,0.0,1.0,61,0.00,,,0.00,meteohub,2013-07-29 14:47:00,
2013-07-29 09:52:00,73.2,59.4,-100.00,East,91,0.0,1.0,62,0.00,,,0.00,meteohub,2013-07-29 14:52:00,
2013-07-29 09:57:00,72.9,59.5,-100.00,East,91,0.0,2.0,63,0.00,,,0.00,meteohub,2013-07-29 14:57:00,
2013-07-29 10:02:00,72.5,59.2,-100.00,East,91,0.0,2.0,63,0.00,,,0.00,meteohub,2013-07-29 15:02:00,
2013-07-29 10:07:00,72.3,59.0,-100.00,East,97,0.0,2.0,63,0.00,,,0.00,meteohub,2013-07-29 15:07:00,
2013-07-29 10:12:00,72.7,60.3,-100.00,East,101,0.0,1.0,65,0.00,,,0.00,meteohub,2013-07-29 15:12:00,
2013-07-29 10:17:00,73.2,59.4,-100.00,East,101,0.0,1.0,62,0.00,,,0.00,meteohub,2013-07-29 15:17:00,
2013-07-29 10:22:00,73.4,59.5,-100.00,East,101,0.0,1.0,62,0.00,,,0.00,meteohub,2013-07-29 15:22:00,
2013-07-29 10:27:00,73.0,59.2,-100.00,ESE,102,0.0,1.0,62,0.00,,,0.00,meteohub,2013-07-29 15:27:00,
2013-07-29 10:32:00,73.6,59.4,-100.00,ESE,102,0.0,1.0,61,0.00,,,0.00,meteohub,2013-07-29 15:32:00,
2013-07-29 10:37:00,74.7,59.9,-100.00,ESE,102,0.0,1.0,60,0.00,,,0.00,meteohub,2013-07-29 15:37:00,
2013-07-29 10:42:00,75.6,60.3,-100.00,ESE,103,0.0,1.0,59,0.00,,,0.00,meteohub,2013-07-29 15:42:00,
2013-07-29 10:47:00,75.9,60.6,-100.00,East,99,0.0,1.0,59,0.00,,,0.00,meteohub,2013-07-29 15:47:00,
2013-07-29 10:52:00,76.5,59.2,-100.00,ESE,113,0.0,1.0,55,0.00,,,0.00,meteohub,2013-07-29 15:52:00,
2013-07-29 10:57:00,77.4,59.9,-100.00,SE,138,0.0,1.0,55,0.00,,,0.00,meteohub,2013-07-29 15:57:00,
2013-07-29 11:02:00,77.7,59.7,-100.00,SE,138,0.0,1.0,54,0.00,,,0.00,meteohub,2013-07-29 16:02:00,
2013-07-29 11:07:00,77.7,59.2,-100.00,ESE,108,0.0,1.0,53,0.00,,,0.00,meteohub,2013-07-29 16:07:00,
2013-07-29 11:12:00,77.2,58.6,-100.00,ESE,119,0.0,3.0,53,0.00,,,0.00,meteohub,2013-07-29 16:12:00,
2013-07-29 11:17:00,76.5,57.6,-100.00,ESE,118,0.0,3.0,52,0.00,,,0.00,meteohub,2013-07-29 16:17:00,
2013-07-29 11:22:00,76.5,58.1,-100.00,SE,146,0.0,3.0,53,0.00,,,0.00,meteohub,2013-07-29 16:22:00,
2013-07-29 11:27:00,76.6,57.2,-100.00,SE,136,0.0,2.0,51,0.00,,,0.00,meteohub,2013-07-29 16:27:00,
2013-07-29 11:32:00,77.4,58.3,-100.00,SSE,149,0.0,2.0,52,0.00,,,0.00,meteohub,2013-07-29 16:32:00,
2013-07-29 11:37:00,77.4,57.7,-100.00,SE,138,0.0,2.0,51,0.00,,,0.00,meteohub,2013-07-29 16:37:00,
2013-07-29 11:42:00,76.6,57.7,-100.00,SE,135,0.0,2.0,52,0.00,,,0.00,meteohub,2013-07-29 16:42:00,
2013-07-29 11:47:00,76.6,59.2,-100.00,SE,138,0.0,1.0,55,0.00,,,0.00,meteohub,2013-07-29 16:47:00,
2013-07-29 11:52:00,76.8,58.5,-100.00,SE,133,0.0,1.0,53,0.00,,,0.00,meteohub,2013-07-29 16:52:00,
2013-07-29 11:57:00,76.6,58.3,-100.00,SE,128,0.0,1.0,53,0.00,,,0.00,meteohub,2013-07-29 16:57:00,
2013-07-29 12:02:00,76.5,58.1,-100.00,SE,140,0.0,1.0,53,0.00,,,0.00,meteohub,2013-07-29 17:02:00,
2013-07-29 12:08:00,76.3,57.4,-100.00,SE,126,0.0,1.0,52,0.00,,,0.00,meteohub,2013-07-29 17:08:00,
2013-07-29 12:13:00,75.9,58.1,-100.00,ESE,121,0.0,1.0,54,0.00,,,0.00,meteohub,2013-07-29 17:13:00,
2013-07-29 12:18:00,75.6,55.6,-100.00,ESE,115,0.0,3.0,50,0.00,,,0.00,meteohub,2013-07-29 17:18:00,
2013-07-29 12:23:00,75.9,57.6,-100.00,East,83,0.0,3.0,53,0.00,,,0.00,meteohub,2013-07-29 17:23:00,
2013-07-29 12:28:00,76.6,58.3,-100.00,SSE,155,0.0,3.0,53,0.00,,,0.00,meteohub,2013-07-29 17:28:00,
2013-07-29 12:33:00,77.2,58.6,-100.00,SE,128,0.0,3.0,53,0.00,,,0.00,meteohub,2013-07-29 17:33:00,
2013-07-29 12:38:00,78.1,58.5,-100.00,ESE,121,0.0,1.0,51,0.00,,,0.00,meteohub,2013-07-29 17:38:00,
2013-07-29 12:45:00,78.6,59.0,-100.00,South,171,0.0,1.0,51,0.00,,,0.00,meteohub,2013-07-29 17:45:00,
2013-07-29 12:50:00,80.1,60.8,-100.00,SE,124,0.0,1.0,52,0.00,,,0.00,meteohub,2013-07-29 17:50:00,
2013-07-29 12:55:00,79.9,60.6,-100.00,South,172,0.0,3.0,52,0.00,,,0.00,meteohub,2013-07-29 17:55:00,
2013-07-29 13:00:00,80.1,59.2,-100.00,SSE,161,0.0,5.0,49,0.00,,,0.00,meteohub,2013-07-29 18:00:00,
2013-07-29 13:05:00,80.2,59.4,-100.00,ESE,109,0.0,6.0,49,0.00,,,0.00,meteohub,2013-07-29 18:05:00,
2013-07-29 13:10:00,78.6,60.1,-100.00,ESE,118,0.0,6.0,53,0.00,,,0.00,meteohub,2013-07-29 18:10:00,
2013-07-29 13:15:00,78.6,59.0,-100.00,ESE,123,0.0,6.0,51,0.00,,,0.00,meteohub,2013-07-29 18:15:00,
2013-07-29 13:20:00,79.2,58.3,-100.00,ESE,123,0.0,3.0,49,0.00,,,0.00,meteohub,2013-07-29 18:20:00,
2013-07-29 13:25:00,80.1,59.7,-100.00,SW,215,0.0,3.0,50,0.00,,,0.00,meteohub,2013-07-29 18:25:00,
2013-07-29 13:30:00,80.8,59.2,-100.00,ESE,119,0.0,2.0,48,0.00,,,0.00,meteohub,2013-07-29 18:30:00,
2013-07-29 13:35:00,80.6,59.2,-100.00,ESE,109,1.0,2.0,48,0.00,,,0.00,meteohub,2013-07-29 18:35:00,
2013-07-29 13:40:00,80.2,58.8,-100.00,SSW,202,0.0,5.0,48,0.00,,,0.00,meteohub,2013-07-29 18:40:00,
2013-07-29 13:45:00,81.0,58.3,-100.00,SE,128,1.0,5.0,46,0.00,,,0.00,meteohub,2013-07-29 18:45:00,
2013-07-29 13:50:00,81.1,55.9,-100.00,SSW,206,1.0,5.0,42,0.00,,,0.00,meteohub,2013-07-29 18:50:00,
2013-07-29 13:55:00,80.4,56.5,-100.00,SSW,211,2.0,6.0,44,0.00,,,0.00,meteohub,2013-07-29 18:55:00,
2013-07-29 14:00:00,79.7,56.5,-100.00,SE,136,0.0,6.0,45,0.00,,,0.00,meteohub,2013-07-29 19:00:00,
2013-07-29 14:05:00,79.7,57.0,-100.00,East,100,0.0,6.0,46,0.00,,,0.00,meteohub,2013-07-29 19:05:00,
2013-07-29 14:10:00,79.0,57.0,-100.00,ESE,122,0.0,5.0,47,0.00,,,0.00,meteohub,2013-07-29 19:10:00,
2013-07-29 14:15:00,78.6,56.7,-100.00,SE,126,0.0,5.0,47,0.00,,,0.00,meteohub,2013-07-29 19:15:00,
2013-07-29 14:20:00,78.6,57.9,-100.00,SE,124,0.0,1.0,49,0.00,,,0.00,meteohub,2013-07-29 19:20:00,
2013-07-29 14:25:00,79.2,58.3,-100.00,SE,126,0.0,1.0,49,0.00,,,0.00,meteohub,2013-07-29 19:25:00,
2013-07-29 14:30:00,79.3,58.5,-100.00,SE,126,0.0,1.0,49,0.00,,,0.00,meteohub,2013-07-29 19:30:00,
2013-07-29 14:35:00,79.5,57.6,-100.00,SE,125,0.0,1.0,47,0.00,,,0.00,meteohub,2013-07-29 19:35:00,
2013-07-29 14:40:00,79.3,58.5,-100.00,SE,127,1.0,1.0,49,0.00,,,0.00,meteohub,2013-07-29 19:40:00,
2013-07-29 14:45:00,78.6,58.5,-100.00,SSW,196,2.0,0.0,50,0.00,,,0.00,meteohub,2013-07-29 19:45:00,
2013-07-29 14:50:00,79.0,59.4,-100.00,ESE,123,0.0,3.0,51,0.00,,,0.00,meteohub,2013-07-29 19:50:00,
2013-07-29 14:55:00,78.6,58.5,-100.00,ESE,123,0.0,3.0,50,0.00,,,0.00,meteohub,2013-07-29 19:55:00,
2013-07-29 15:00:00,78.8,58.6,-100.00,SE,132,0.0,3.0,50,0.00,,,0.00,meteohub,2013-07-29 20:00:00,
2013-07-29 15:05:00,78.6,59.0,-100.00,SSE,147,0.0,1.0,51,0.00,,,0.00,meteohub,2013-07-29 20:05:00,
2013-07-29 15:10:00,79.0,59.4,-100.00,SE,134,0.0,1.0,51,0.00,,,0.00,meteohub,2013-07-29 20:10:00,
2013-07-29 15:15:00,78.6,59.0,-100.00,ESE,113,0.0,1.0,51,0.00,,,0.00,meteohub,2013-07-29 20:15:00,
2013-07-29 15:20:00,78.3,59.2,-100.00,SE,129,0.0,1.0,52,0.00,,,0.00,meteohub,2013-07-29 20:20:00,
2013-07-29 15:25:00,78.1,59.5,-100.00,ESE,122,0.0,2.0,53,0.00,,,0.00,meteohub,2013-07-29 20:25:00,
2013-07-29 15:30:00,77.7,59.2,-100.00,ESE,122,0.0,2.0,53,0.00,,,0.00,meteohub,2013-07-29 20:30:00,
2013-07-29 15:35:00,77.7,59.2,-100.00,ESE,119,0.0,1.0,53,0.00,,,0.00,meteohub,2013-07-29 20:35:00,
2013-07-29 15:40:00,77.4,59.4,-100.00,SE,142,0.0,1.0,54,0.00,,,0.00,meteohub,2013-07-29 20:40:00,
2013-07-29 15:45:00,77.2,59.2,-100.00,SE,137,0.0,1.0,54,0.00,,,0.00,meteohub,2013-07-29 20:45:00,
2013-07-29 15:50:00,76.6,59.2,-100.00,SE,134,0.0,1.0,55,0.00,,,0.00,meteohub,2013-07-29 20:50:00,
2013-07-29 15:55:00,76.5,59.2,-100.00,SE,134,0.0,1.0,55,0.00,,,0.00,meteohub,2013-07-29 20:55:00,
2013-07-29 16:00:00,76.3,59.9,-100.00,SE,134,0.0,1.0,57,0.00,,,0.00,meteohub,2013-07-29 21:00:00,
2013-07-29 16:05:00,76.3,60.4,-100.00,SE,133,0.0,1.0,58,0.00,,,0.00,meteohub,2013-07-29 21:05:00,
2013-07-29 16:10:00,75.9,59.5,-100.00,SE,133,0.0,1.0,57,0.00,,,0.00,meteohub,2013-07-29 21:10:00,
2013-07-29 16:15:00,75.7,59.9,-100.00,SE,133,0.0,0.0,58,0.00,,,0.00,meteohub,2013-07-29 21:15:00,
2013-07-29 16:20:00,75.6,59.7,-100.00,SE,133,0.0,1.0,58,0.00,,,0.00,meteohub,2013-07-29 21:20:00,
2013-07-29 16:25:00,75.4,60.1,-100.00,SE,131,0.0,1.0,59,0.00,,,0.00,meteohub,2013-07-29 21:25:00,
2013-07-29 16:30:00,75.0,60.3,-100.00,SE,130,0.0,1.0,60,0.00,,,0.00,meteohub,2013-07-29 21:30:00,
2013-07-29 16:35:00,75.0,60.6,-100.00,SE,130,0.0,1.0,61,0.00,,,0.00,meteohub,2013-07-29 21:35:00,
2013-07-29 16:40:00,74.8,60.4,-100.00,SE,130,0.0,1.0,61,0.00,,,0.00,meteohub,2013-07-29 21:40:00,
2013-07-29 16:45:00,74.8,60.4,-100.00,SE,130,0.0,0.0,61,0.00,,,0.00,meteohub,2013-07-29 21:45:00,
2013-07-29 16:50:00,74.8,60.4,-100.00,SE,130,0.0,1.0,61,0.00,,,0.00,meteohub,2013-07-29 21:50:00,
2013-07-29 16:55:00,75.0,60.6,-100.00,SE,130,0.0,1.0,61,0.00,,,0.00,meteohub,2013-07-29 21:55:00,
2013-07-29 17:00:00,74.8,60.1,-100.00,SE,130,0.0,1.0,60,0.00,,,0.00,meteohub,2013-07-29 22:00:00,
2013-07-29 17:05:00,74.8,60.1,-100.00,SE,129,0.0,0.0,60,0.00,,,0.00,meteohub,2013-07-29 22:05:00,
2013-07-29 17:10:00,74.8,60.1,-100.00,SE,130,0.0,0.0,60,0.00,,,0.00,meteohub,2013-07-29 22:10:00,
2013-07-29 17:15:00,74.8,60.1,-100.00,SE,130,0.0,1.0,60,0.00,,,0.00,meteohub,2013-07-29 22:15:00,
2013-07-29 17:20:00,74.7,61.2,-100.00,SE,129,0.0,1.0,63,0.00,,,0.00,meteohub,2013-07-29 22:20:00,
2013-07-29 17:25:00,74.3,61.3,-100.00,SE,136,0.0,1.0,64,0.00,,,0.00,meteohub,2013-07-29 22:25:00,
2013-07-29 17:30:00,73.9,61.0,-100.00,SE,135,0.0,1.0,64,0.00,,,0.00,meteohub,2013-07-29 22:30:00,
2013-07-29 17:35:00,73.8,60.8,-100.00,South,188,0.0,1.0,64,0.00,,,0.00,meteohub,2013-07-29 22:35:00,
2013-07-29 17:40:00,73.2,60.8,-100.00,South,188,0.0,1.0,65,0.00,,,0.00,meteohub,2013-07-29 22:40:00,
2013-07-29 17:45:00,73.0,61.0,-100.00,South,188,0.0,1.0,66,0.00,,,0.00,meteohub,2013-07-29 22:45:00,
2013-07-29 17:50:00,72.9,60.8,-100.00,South,188,0.0,1.0,66,0.00,,,0.00,meteohub,2013-07-29 22:50:00,
2013-07-29 17:55:00,72.7,60.3,-100.00,South,191,0.0,1.0,65,0.00,,,0.00,meteohub,2013-07-29 22:55:00,
2013-07-29 18:00:00,72.5,60.4,-100.00,South,191,0.0,1.0,66,0.00,,,0.00,meteohub,2013-07-29 23:00:00,
2013-07-29 18:05:00,72.3,60.3,-100.00,South,191,0.0,2.0,66,0.00,,,0.00,meteohub,2013-07-29 23:05:00,
2013-07-29 18:10:00,72.3,60.8,-100.00,South,191,0.0,2.0,67,0.00,,,0.00,meteohub,2013-07-29 23:10:00,
2013-07-29 18:15:00,72.1,60.6,-100.00,South,191,0.0,2.0,67,0.00,,,0.00,meteohub,2013-07-29 23:15:00,
2013-07-29 18:20:00,72.1,61.0,-100.00,South,190,0.0,1.0,68,0.00,,,0.00,meteohub,2013-07-29 23:20:00,
2013-07-29 18:25:00,72.1,61.0,-100.00,South,190,0.0,1.0,68,0.00,,,0.00,meteohub,2013-07-29 23:25:00,
2013-07-29 18:30:00,72.1,61.3,-100.00,South,190,0.0,0.0,69,0.00,,,0.00,meteohub,2013-07-29 23:30:00,
2013-07-29 18:35:00,72.1,61.3,-100.00,South,190,0.0,0.0,69,0.00,,,0.00,meteohub,2013-07-29 23:35:00,
2013-07-29 18:40:00,72.0,61.2,-100.00,South,190,0.0,0.0,69,0.00,,,0.00,meteohub,2013-07-29 23:40:00,
2013-07-29 18:45:00,72.0,61.2,-100.00,South,190,0.0,0.0,69,0.00,,,0.00,meteohub,2013-07-29 23:45:00,
2013-07-29 18:50:00,71.8,61.0,-100.00,South,190,0.0,0.0,69,0.00,,,0.00,meteohub,2013-07-29 23:50:00,
2013-07-29 18:55:00,71.6,60.8,-100.00,South,190,0.0,0.0,69,0.00,,,0.00,meteohub,2013-07-29 23:55:00,
2013-07-29 19:00:00,71.4,61.5,-100.00,South,190,0.0,0.0,71,0.00,,,0.00,meteohub,2013-07-30 00:00:00,
2013-07-29 19:05:00,71.2,61.3,-100.00,South,190,0.0,0.0,71,0.00,,,0.00,meteohub,2013-07-30 00:05:00,
2013-07-29 19:10:00,71.2,61.3,-100.00,South,190,0.0,0.0,71,0.00,,,0.00,meteohub,2013-07-30 00:10:00,
2013-07-29 19:15:00,71.1,61.5,-100.00,South,189,0.0,0.0,72,0.00,,,0.00,meteohub,2013-07-30 00:15:00,
2013-07-29 19:20:00,70.9,61.9,-100.00,South,189,0.0,0.0,73,0.00,,,0.00,meteohub,2013-07-30 00:20:00,
2013-07-29 19:25:00,70.5,61.5,-100.00,South,189,0.0,0.0,73,0.00,,,0.00,meteohub,2013-07-30 00:25:00,
2013-07-29 19:30:00,70.3,61.7,-100.00,South,189,0.0,0.0,74,0.00,,,0.00,meteohub,2013-07-30 00:30:00,
2013-07-29 19:35:00,70.3,61.7,-100.00,South,189,0.0,0.0,74,0.00,,,0.00,meteohub,2013-07-30 00:35:00,
2013-07-29 19:40:00,70.2,61.9,-100.00,South,189,0.0,0.0,75,0.00,,,0.00,meteohub,2013-07-30 00:40:00,
2013-07-29 19:45:00,70.0,62.1,-100.00,South,189,0.0,0.0,76,0.00,,,0.00,meteohub,2013-07-30 00:45:00,
2013-07-29 19:50:00,69.8,61.9,-100.00,South,189,0.0,0.0,76,0.00,,,0.00,meteohub,2013-07-30 00:50:00,
2013-07-29 19:55:00,69.6,61.7,-100.00,South,188,0.0,0.0,76,0.00,,,0.00,meteohub,2013-07-30 00:55:00,
2013-07-29 20:00:00,69.6,62.1,-100.00,South,186,0.0,0.0,77,0.00,,,0.00,meteohub,2013-07-30 01:00:00,
2013-07-29 20:05:00,69.4,61.5,-100.00,SE,146,0.0,1.0,76,0.00,,,0.00,meteohub,2013-07-30 01:05:00,
2013-07-29 20:10:00,69.6,61.7,-100.00,ESE,111,0.0,1.0,76,0.00,,,0.00,meteohub,2013-07-30 01:10:00,
2013-07-29 20:15:00,69.6,61.7,-100.00,East,101,1.0,1.0,76,0.00,,,0.00,meteohub,2013-07-30 01:15:00,
2013-07-29 20:20:00,69.6,61.7,-100.00,East,101,0.0,1.0,76,0.00,,,0.00,meteohub,2013-07-30 01:20:00,
2013-07-29 20:25:00,69.6,61.7,-100.00,East,101,0.0,1.0,76,0.00,,,0.00,meteohub,2013-07-30 01:25:00,
2013-07-29 20:30:00,69.4,61.5,-100.00,East,101,0.0,1.0,76,0.00,,,0.00,meteohub,2013-07-30 01:30:00,
2013-07-29 20:35:00,69.4,61.9,-100.00,East,101,0.0,0.0,77,0.00,,,0.00,meteohub,2013-07-30 01:35:00,
2013-07-29 20:40:00,69.4,61.9,-100.00,East,101,0.0,0.0,77,0.00,,,0.00,meteohub,2013-07-30 01:40:00,
2013-07-29 20:45:00,69.3,61.7,-100.00,East,101,0.0,0.0,77,0.00,,,0.00,meteohub,2013-07-30 01:45:00,
2013-07-29 20:50:00,69.4,61.9,-100.00,ESE,105,0.0,1.0,77,0.00,,,0.00,meteohub,2013-07-30 01:50:00,
2013-07-29 20:55:00,69.4,61.9,-100.00,ESE,106,0.0,2.0,77,0.00,,,0.00,meteohub,2013-07-30 01:55:00,
2013-07-29 21:00:00,69.4,61.9,-100.00,ESE,104,0.0,2.0,77,0.00,,,0.00,meteohub,2013-07-30 02:00:00,
2013-07-29 21:05:00,69.4,62.2,-100.00,ESE,103,0.0,1.0,78,0.00,,,0.00,meteohub,2013-07-30 02:05:00,
2013-07-29 21:10:00,69.4,61.9,-100.00,ESE,103,0.0,1.0,77,0.00,,,0.00,meteohub,2013-07-30 02:10:00,
2013-07-29 21:15:00,69.4,61.9,-100.00,ESE,103,0.0,1.0,77,0.00,,,0.00,meteohub,2013-07-30 02:15:00,
2013-07-29 21:20:00,69.4,61.9,-100.00,ESE,104,0.0,1.0,77,0.00,,,0.00,meteohub,2013-07-30 02:20:00,
2013-07-29 21:25:00,69.4,61.9,-100.00,ESE,107,1.0,3.0,77,0.00,,,0.00,meteohub,2013-07-30 02:25:00,
2013-07-29 21:31:00,69.6,62.1,-100.00,ESE,108,0.0,3.0,77,0.00,,,0.00,meteohub,2013-07-30 02:31:00,
2013-07-29 21:36:00,69.6,62.1,-100.00,ESE,108,0.0,3.0,77,0.00,,,0.00,meteohub,2013-07-30 02:36:00,
2013-07-29 21:41:00,69.6,62.1,-100.00,ESE,107,0.0,2.0,77,0.00,,,0.00,meteohub,2013-07-30 02:41:00,
2013-07-29 21:46:00,69.6,62.1,-100.00,ESE,108,0.0,1.0,77,0.00,,,0.00,meteohub,2013-07-30 02:46:00,
2013-07-29 21:51:00,69.6,62.1,-100.00,ESE,107,0.0,1.0,77,0.00,,,0.00,meteohub,2013-07-30 02:51:00,
2013-07-29 21:56:00,69.6,62.1,-100.00,ESE,107,0.0,1.0,77,0.00,,,0.00,meteohub,2013-07-30 02:56:00,
2013-07-29 22:01:00,69.6,62.4,-100.00,ESE,107,0.0,0.0,78,0.00,,,0.00,meteohub,2013-07-30 03:01:00,
2013-07-29 22:06:00,69.6,62.4,-100.00,ESE,107,0.0,0.0,78,0.00,,,0.00,meteohub,2013-07-30 03:06:00,
2013-07-29 22:11:00,69.4,62.2,-100.00,ESE,107,0.0,0.0,78,0.00,,,0.00,meteohub,2013-07-30 03:11:00,
2013-07-29 22:16:00,69.4,62.2,-100.00,ESE,107,0.0,0.0,78,0.00,,,0.00,meteohub,2013-07-30 03:16:00,
2013-07-29 22:21:00,69.4,62.2,-100.00,ESE,107,0.0,1.0,78,0.00,,,0.00,meteohub,2013-07-30 03:21:00,
2013-07-29 22:26:00,69.4,62.6,-100.00,ESE,107,0.0,1.0,79,0.00,,,0.00,meteohub,2013-07-30 03:26:00,
2013-07-29 22:31:00,69.4,62.6,-100.00,ESE,106,0.0,1.0,79,0.00,,,0.00,meteohub,2013-07-30 03:31:00,
2013-07-29 22:36:00,69.3,62.4,-100.00,ESE,105,0.0,1.0,79,0.00,,,0.00,meteohub,2013-07-30 03:36:00,
2013-07-29 22:41:00,69.3,62.4,-100.00,ESE,105,0.0,1.0,79,0.00,,,0.00,meteohub,2013-07-30 03:41:00,
2013-07-29 22:46:00,69.3,62.4,-100.00,ESE,105,0.0,1.0,79,0.00,,,0.00,meteohub,2013-07-30 03:46:00,
2013-07-29 22:51:00,69.3,62.4,-100.00,ESE,105,0.0,0.0,79,0.00,,,0.00,meteohub,2013-07-30 03:51:00,
2013-07-29 22:56:00,69.3,62.4,-100.00,ESE,105,0.0,0.0,79,0.00,,,0.00,meteohub,2013-07-30 03:56:00,
2013-07-29 23:01:00,69.3,62.4,-100.00,ESE,105,0.0,1.0,79,0.00,,,0.00,meteohub,2013-07-30 04:01:00,
2013-07-29 23:06:00,69.1,62.2,-100.00,ESE,105,0.0,1.0,79,0.00,,,0.00,meteohub,2013-07-30 04:06:00,
2013-07-29 23:11:00,69.1,62.2,-100.00,ESE,105,0.0,1.0,79,0.00,,,0.00,meteohub,2013-07-30 04:11:00,
2013-07-29 23:16:00,69.1,62.6,-100.00,ESE,103,0.0,0.0,80,0.00,,,0.00,meteohub,2013-07-30 04:16:00,
2013-07-29 23:21:00,69.1,62.6,-100.00,ESE,102,0.0,1.0,80,0.00,,,0.00,meteohub,2013-07-30 04:21:00,
2013-07-29 23:26:00,69.1,62.6,-100.00,East,101,0.0,1.0,80,0.00,,,0.00,meteohub,2013-07-30 04:26:00,
2013-07-29 23:31:00,68.9,62.4,-100.00,East,100,0.0,1.0,80,0.00,,,0.00,meteohub,2013-07-30 04:31:00,
2013-07-29 23:36:00,69.1,62.6,-100.00,East,84,0.0,4.0,80,0.00,,,0.00,meteohub,2013-07-30 04:36:00,
2013-07-29 23:41:00,69.1,62.6,-100.00,East,83,0.0,4.0,80,0.00,,,0.00,meteohub,2013-07-30 04:41:00,
2013-07-29 23:46:00,69.1,62.6,-100.00,East,84,0.0,4.0,80,0.00,,,0.00,meteohub,2013-07-30 04:46:00,
2013-07-29 23:51:00,69.1,62.6,-100.00,East,83,0.0,1.0,80,0.00,,,0.00,meteohub,2013-07-30 04:51:00,
2013-07-29 23:56:00,69.1,63.3,-100.00,East,84,0.0,0.0,82,0.01,,,0.01,meteohub,2013-07-30 04:56:00,